カタログに戻る

STARLINK-34406

運用中通信VLEO
NORAD 64705·PAYLOAD·🇺🇸 United States

打ち上げ Jun 28, 2025 から Vandenberg Space Force Base

Loading…

次のパス (今後24時間)

TLE

最新Source: CelesTrak SupGP

元期: Sep 14, 2026, 21:43 UTC

1 64705C 25142K   26257.90534722 -.00014777  00000+0 -51384-3 0  2578
2 64705  70.0011 195.8997 0002945 269.0959 339.0029 15.29599586    17

AllMySatでSTARLINK-34406をリアルタイム追跡

Download on the App Store